Simultaneous Nadir Overpasses (SNOs) Predictions

Prediction of SNOs between NOAA-20 and AQUA Satellite Orbit:

Table of predicted SNOs for the next 14.0 days since TLE Epoch: 8/11/2018
Index Date (NOAA-20) Time (NOAA-20) Lat,Lon (NOAA-20) SZA (NOAA-20 ) Date (AQUA) Time (AQUA) Lat,Lon (AQUA) SZA (AQUA ) Distance(km) Time Diff (sec)
1 08/11/2018 14:30:50 -72.20, 11.77 92.93 08/11/2018 14:32:04 -72.10, 12.27 93.04 20.03 74
2 08/11/2018 15:20:00 76.72,-168.59 81.77 08/11/2018 15:19:59 76.71,-168.69 81.80 2.86 1
3 08/11/2018 16:07:05 -80.86, 67.66 110.67 08/11/2018 16:05:52 -81.51, 68.79 110.39 74.56 73
4 08/14/2018 06:46:28 -75.96, 137.09 96.51 08/14/2018 06:47:15 -75.96, 137.08 96.55 0.37 47
5 08/14/2018 07:36:52 76.86, -52.30 82.37 08/14/2018 07:36:22 76.85, -52.31 82.40 0.28 30
6 08/16/2018 23:03:19 -76.19,-106.35 96.00 08/16/2018 23:03:37 -76.19,-106.30 96.03 1.42 18
7 08/16/2018 23:53:44 77.03, 64.18 82.94 08/16/2018 23:52:45 77.04, 64.25 82.98 1.89 59
8 08/19/2018 14:29:41 75.63,-159.76 85.49 08/19/2018 14:30:48 75.63,-159.77 85.44 0.48 67
9 08/19/2018 15:20:09 -76.46, 10.39 95.52 08/19/2018 15:19:58 -76.47, 10.49 95.54 2.77 11
10 08/22/2018 06:46:31 75.90, -43.09 85.99 08/22/2018 06:47:09 75.91, -43.05 85.95 1.16 38
11 08/22/2018 07:36:51 -77.08, 128.59 95.47 08/22/2018 07:36:12 -77.07, 128.50 95.42 2.34 39
12 08/24/2018 23:03:19 76.22, 73.77 86.46 08/24/2018 23:03:28 76.23, 73.85 86.43 2.29 9




NCC Satellite Simultaneous Nadir Overpasses (SNOs) Prediction Service
